K3JAR-3 Weather Reports


Display with metric or nautical units.
time (UTC)temp
F
wind
direction
speed
MPH
gust
MPH
rain 1hr
in
rain 24hr
in
rain mn
in
humidity
%
barometer
mb
20260905230017 101 108 2.0 4.0 0.00 0.00 0.00 38 1012.2
20260905225016 102 111 3.0 6.0 0.00 0.00 0.00 37 1012.2
20260905224018 101 118 2.0 4.0 0.00 0.00 0.00 38 1012.4
20260905223021 101 101 3.0 7.0 0.00 0.00 0.00 38 1012.4
20260905222030 102 68 3.0 6.0 0.00 0.00 0.00 37 1012.4
20260905221028 100 172 4.0 5.0 0.00 0.00 0.00 39 1012.5
20260905220031 101 174 4.0 5.0 0.00 0.00 0.00 39 1012.5
20260905215017 101 67 2.0 3.0 0.00 0.00 0.00 38 1012.7
20260905214020 98 213 1.0 2.0 0.00 0.00 0.00 41 1012.8
20260905213028 99 107 1.0 2.0 0.00 0.00 0.00 40 1013.0
20260905212027 97 0.0 0.0 0.00 0.00 0.00 42 1013.1
20260905211030 99 102 3.0 5.0 0.00 0.00 0.00 40 1013.2
20260905210015 100 343 2.0 3.0 0.00 0.00 0.00 40 1013.3
20260905205020 103 94 5.0 8.0 0.00 0.00 0.00 37 1013.4
20260905204022 103 40 5.0 8.0 0.00 0.00 0.00 38 1013.5
20260905203105 100 206 4.0 8.0 0.00 0.00 0.00 40 1013.6
20260905202022 101 174 5.0 9.0 0.00 0.00 0.00 40 1013.8
20260905201059 100 161 4.0 6.0 0.00 0.00 0.00 41 1013.9
20260905200016 100 144 5.0 6.0 0.00 0.00 0.00 41 1014.1
20260905195019 100 122 3.0 7.0 0.00 0.00 0.00 42 1014.3
20260905194023 101 78 3.0 6.0 0.00 0.00 0.00 40 1014.5
20260905193026 101 26 3.0 5.0 0.00 0.00 0.00 41 1014.7
20260905192054 98 144 1.0 2.0 0.00 0.00 0.00 44 1014.8
20260905191033 96 122 3.0 3.0 0.00 0.00 0.00 45 1014.9
20260905190059 97 206 3.0 5.0 0.00 0.00 0.00 45 1015.1
20260905185021 99 195 3.0 5.0 0.00 0.00 0.00 43 1015.3
20260905184024 98 164 4.0 6.0 0.00 0.00 0.00 44 1015.5
20260905183027 99 100 3.0 4.0 0.00 0.00 0.00 43 1015.6
20260905182051 98 210 3.0 5.0 0.00 0.00 0.00 44 1015.8
20260905181017 98 162 6.0 9.0 0.00 0.00 0.00 45 1015.9
20260905180019 97 168 4.0 7.0 0.00 0.00 0.00 45 1016.1
20260905175027 97 278 3.0 6.0 0.00 0.00 0.00 46 1016.3
20260905174026 98 169 4.0 5.0 0.00 0.00 0.00 45 1016.3
20260905173119 96 63 2.0 4.0 0.00 0.00 0.00 46 1016.5
20260905172033 97 178 4.0 8.0 0.00 0.00 0.00 46 1016.6
20260905171042 95 176 5.0 8.0 0.00 0.00 0.00 47 1016.6
20260905170022 96 244 4.0 6.0 0.00 0.00 0.00 47 1016.6
20260905165024 96 130 5.0 8.0 0.00 0.00 0.00 48 1016.8
20260905164022 96 80 5.0 9.0 0.00 0.00 0.00 47 1016.8
20260905163018 94 114 3.0 4.0 0.00 0.00 0.00 50 1016.8
20260905162017 94 146 3.0 7.0 0.00 0.00 0.00 52 1016.8
20260905161044 93 178 3.0 4.0 0.00 0.00 0.00 53 1016.8
20260905160023 93 166 3.0 5.0 0.00 0.00 0.00 55 1016.8
20260905155026 92 136 2.0 4.0 0.00 0.00 0.00 56 1016.8
20260905154035 92 246 1.0 6.0 0.00 0.00 0.00 56 1016.8
20260905153032 91 244 3.0 5.0 0.00 0.00 0.00 58 1016.7
20260905152018 91 282 2.0 4.0 0.00 0.00 0.00 58 1016.6
20260905151021 90 211 3.0 6.0 0.00 0.00 0.00 59 1016.6
20260905150024 89 197 3.0 5.0 0.00 0.00 0.00 61 1016.6
20260905145027 88 193 3.0 5.0 0.00 0.00 0.00 62 1016.6
20260905144030 88 203 3.0 5.0 0.00 0.00 0.00 64 1016.8
20260905143015 87 204 2.0 5.0 0.00 0.00 0.00 66 1016.7
20260905142039 86 223 2.0 4.0 0.00 0.00 0.00 69 1016.6
20260905141022 85 199 3.0 3.0 0.00 0.00 0.00 72 1016.6
20260905140045 84 198 3.0 5.0 0.00 0.00 0.00 74 1016.6
20260905135029 83 173 3.0 4.0 0.00 0.00 0.00 75 1016.5
20260905134037 83 161 4.0 5.0 0.00 0.00 0.00 77 1016.3
20260905133017 82 195 2.0 3.0 0.00 0.00 0.00 78 1016.3
20260905132021 81 167 3.0 4.0 0.00 0.00 0.00 79 1016.2
20260905131024 80 156 2.0 3.0 0.00 0.00 0.00 80 1016.1
20260905130021 79 168 3.0 5.0 0.00 0.00 0.00 82 1015.8
20260905125059 79 156 3.0 4.0 0.00 0.00 0.00 83 1015.8
20260905124016 78 153 1.0 3.0 0.00 0.00 0.00 85 1015.9
20260905123020 76 0.0 0.0 0.00 0.00 0.00 88 1016.0
20260905122023 75 168 0.0 1.0 0.00 0.00 0.00 88 1016.0
20260905121026 76 157 1.0 1.0 0.00 0.00 0.00 88 1015.8
20260905120054 76 159 2.0 2.0 0.00 0.00 0.00 88 1015.7
20260905115053 76 176 1.0 2.0 0.00 0.00 0.00 88 1015.8
20260905114018 76 157 1.0 2.0 0.00 0.00 0.00 89 1015.8
20260905113021 75 0.0 0.0 0.00 0.00 0.00 88 1015.7
20260905112019 76 0.0 0.0 0.00 0.00 0.00 87 1015.6
20260905111112 76 0.0 0.0 0.00 0.00 0.00 87 1015.7
20260905110025 77 165 1.0 2.0 0.00 0.00 0.00 86 1015.6
20260905105028 77 182 2.0 2.0 0.00 0.00 0.00 86 1015.6
20260905104032 76 202 0.0 2.0 0.00 0.00 0.00 86 1015.7
20260905103017 77 0.0 0.0 0.00 0.00 0.00 85 1015.7
20260905102021 77 172 0.0 2.0 0.00 0.00 0.00 85 1015.6
20260905101024 77 202 0.0 1.0 0.00 0.00 0.00 84 1015.6
20260905100027 78 163 0.0 2.0 0.00 0.00 0.00 83 1015.6
20260905095031 78 150 2.0 2.0 0.00 0.00 0.00 82 1015.6
20260905094017 78 175 3.0 3.0 0.00 0.00 0.00 82 1015.4
20260905093019 78 160 3.0 4.0 0.00 0.00 0.00 82 1015.4
20260905092023 78 181 3.0 3.0 0.00 0.00 0.00 81 1015.4
20260905091025 79 190 2.0 3.0 0.00 0.00 0.00 81 1015.4
20260905090017 79 186 2.0 3.0 0.00 0.00 0.00 80 1015.4
20260905085015 79 180 3.0 4.0 0.00 0.00 0.00 80 1015.3
20260905084018 79 191 2.0 3.0 0.00 0.00 0.00 80 1015.2
20260905083022 79 205 2.0 4.0 0.00 0.00 0.00 80 1015.2
20260905082025 80 172 2.0 3.0 0.00 0.00 0.00 79 1015.2
20260905081028 80 169 3.0 4.0 0.00 0.00 0.00 78 1015.2
20260905080051 80 174 2.0 3.0 0.00 0.00 0.00 78 1015.2
20260905075017 80 160 1.0 3.0 0.00 0.00 0.00 78 1015.1
20260905074020 81 150 2.0 3.0 0.00 0.00 0.00 77 1015.1
20260905073023 81 182 3.0 5.0 0.00 0.00 0.00 76 1015.2
20260905072027 81 179 3.0 4.0 0.00 0.00 0.00 75 1015.3
20260905071035 81 166 3.0 5.0 0.00 0.00 0.00 75 1015.6
20260905070015 82 168 3.0 4.0 0.00 0.00 0.00 74 1015.6
20260905065039 82 167 3.0 4.0 0.00 0.00 0.00 74 1015.6
20260905064022 82 176 2.0 4.0 0.00 0.00 0.00 73 1015.6
20260905063030 82 176 3.0 5.0 0.00 0.00 0.00 72 1015.7
20260905062033 83 167 4.0 5.0 0.00 0.00 0.00 72 1015.7
20260905061052 83 183 3.0 5.0 0.00 0.00 0.00 71 1015.6
20260905060017 83 164 4.0 6.0 0.00 0.00 0.00 70 1015.6
20260905055020 84 162 4.0 6.0 0.00 0.00 0.00 69 1015.4
20260905054023 84 175 4.0 6.0 0.00 0.00 0.00 69 1015.4
20260905053021 84 163 5.0 7.0 0.00 0.00 0.00 68 1015.4
20260905052018 84 159 4.0 5.0 0.00 0.00 0.00 67 1015.4
20260905051015 85 175 4.0 6.0 0.00 0.00 0.00 67 1015.3
20260905050119 85 162 4.0 6.0 0.00 0.00 0.00 66 1015.4
20260905045042 85 162 5.0 7.0 0.00 0.00 0.00 65 1015.4
20260905044025 86 183 5.0 7.0 0.00 0.00 0.00 64 1015.3
20260905043028 86 166 6.0 9.0 0.00 0.00 0.00 63 1015.3
20260905042027 86 172 5.0 6.0 0.00 0.00 0.00 62 1015.2
20260905041029 87 165 5.0 8.0 0.00 0.00 0.00 62 1015.2
20260905040016 87 156 5.0 7.0 0.00 0.00 0.00 61 1015.2
20260905035018 87 158 5.0 7.0 0.00 0.00 0.00 60 1015.4
20260905034022 88 162 6.0 8.0 0.00 0.00 0.00 60 1015.4
20260905033025 88 167 6.0 8.0 0.00 0.00 0.00 60 1015.4
20260905032028 88 175 6.0 8.0 0.00 0.00 0.00 59 1015.2
20260905031025 88 174 6.0 8.0 0.00 0.00 0.00 59 1015.2
20260905030029 88 157 4.0 6.0 0.00 0.00 0.00 59 1015.0
20260905025057 89 155 5.0 7.0 0.00 0.00 0.00 59 1014.8
20260905024017 89 161 5.0 8.0 0.00 0.00 0.00 58 1014.6
20260905023020 89 151 4.0 7.0 0.00 0.00 0.00 57 1014.5
20260905022044 90 138 4.0 8.0 0.00 0.00 0.00 55 1014.3
20260905021027 90 155 4.0 6.0 0.00 0.00 0.00 53 1014.1
20260905020024 90 133 2.0 3.0 0.00 0.00 0.00 51 1014.0
20260905015035 90 145 2.0 2.0 0.00 0.00 0.00 50 1013.8
20260905014019 91 130 2.0 4.0 0.00 0.00 0.00 49 1013.7
20260905013016 91 170 3.0 4.0 0.00 0.00 0.00 49 1013.6
20260905012025 91 131 2.0 4.0 0.00 0.00 0.00 49 1013.5
20260905011028 92 138 3.0 6.0 0.00 0.00 0.00 48 1013.5
20260905010031 93 155 4.0 6.0 0.00 0.00 0.00 47 1013.3
20260905005057 93 154 4.0 5.0 0.00 0.00 0.00 47 1013.2
20260905004020 94 156 5.0 7.0 0.00 0.00 0.00 46 1013.0
20260905003038 95 154 4.0 7.0 0.00 0.00 0.00 46 1013.0
20260905002041 96 128 5.0 9.0 0.00 0.00 0.00 46 1012.9
20260905001024 96 130 5.0 10.0 0.00 0.00 0.00 45 1012.9
20260905000028 97 144 4.0 6.0 0.00 0.00 0.00 44 1012.8
20260904235031 97 137 4.0 7.0 0.00 0.00 0.00 44 1012.8
20260904234016 97 144 4.0 6.0 0.00 0.00 0.00 45 1012.8
20260904233025 97 115 4.0 7.0 0.00 0.00 0.00 45 1012.8
20260904232023 97 141 4.0 7.0 0.00 0.00 0.00 45 1012.7
20260904231046 98 143 4.0 8.0 0.00 0.00 0.00 43 1012.7